Lancaster, PA

2:55 AM EDT on October 18, 2017 (GMT -0400)
Lancaster

Weather History for KLNS - February, 2012

Change the Weather History Date:

Friday, February 24, 2012

  Actual Average Record
Temperature  
Mean Temperature 42 °F -  
Max Temperature 44 °F 46 °F 76 °F (1985)
Min Temperature 39 °F 28 °F 0 °F (2015)
Degree Days  
Heating Degree Days 24    
Moisture  
Dew Point 37 °F    
Average Humidity 86    
Maximum Humidity 100    
Minimum Humidity 55    
Precipitation  
Precipitation 0.22 in - - ()
Sea Level Pressure  
Sea Level Pressure 29.51 in    
Wind  
Wind Speed 12 mph (ENE)    
Max Wind Speed 23 mph    
Max Gust Speed 31 mph    
Visibility 5 miles    
Events Fog , Rain    
Averages and records for this station are not official NWS values.
T = Trace of Precipitation, MM = Missing Value Source: NWS Daily Summary

Daily Weather History Graph

Daily Weather History Graph

Search for Another Location

Airport or City:

Trip Planner

Search our weather history database for the weather conditions in past years. The results will help you decide how hot, cold, wet, or windy it might be!

Date:

Astronomy

Feb. 24, 2012 Rise Set
Actual Time 6:46 AM EST 5:50 PM EST
Civil Twilight 6:19 AM EST 6:18 PM EST
Nautical Twilight 5:47 AM EST 6:49 PM EST
Astronomical Twilight 5:16 AM EST 7:21 PM EST
Moon 7:40 AM EST (2/24) 8:52 PM EST (2/24)
Length of Visible Light 11h 58m
Length of Day
11h 04m
Waxing Crescent, 7% of the Moon is Illuminated
Feb 24
Waxing Crescent
Feb 29
First Quarter
Mar 8
Full
Mar 14
Last Quarter
Mar 22
New

Hourly Weather History & Observations

Time (EST) Temp. Windchill Dew Point Humidity Pressure Visibility Wind Dir Wind Speed Gust Speed Precip Events Conditions
12:53 AM 44.1 °F 39.0 °F 34.0 °F 68% 29.63 in 6.0 mi NNE 9.2 mph - 0.03 in Rain Light Rain
1:53 AM 42.1 °F 34.5 °F 35.1 °F 76% 29.60 in 5.0 mi NE 15.0 mph - 0.08 in Rain Rain
2:53 AM 41.0 °F 33.1 °F 37.0 °F 86% 29.60 in 7.0 mi East 15.0 mph - 0.05 in Rain Light Rain
3:53 AM 39.9 °F 30.8 °F 35.1 °F 83% 29.57 in 10.0 mi East 18.4 mph 26.5 mph 0.02 in   Overcast
4:53 AM 39.9 °F 31.4 °F 35.1 °F 83% 29.56 in 10.0 mi East 16.1 mph - N/A   Overcast
5:53 AM 39.9 °F 30.5 °F 35.1 °F 83% 29.57 in 10.0 mi East 19.6 mph 26.5 mph N/A   Overcast
6:14 AM 39.2 °F 30.2 °F 35.6 °F 87% 29.57 in 10.0 mi East 17.3 mph 27.6 mph N/A   Overcast
6:53 AM 39.0 °F 30.3 °F 35.1 °F 86% 29.58 in 5.0 mi East 16.1 mph 24.2 mph 0.01 in Rain Light Rain
7:53 AM 39.0 °F 31.4 °F 36.0 °F 89% 29.58 in 6.0 mi East 12.7 mph - 0.01 in Rain Light Rain
8:53 AM 39.0 °F 30.3 °F 36.0 °F 89% 29.56 in 8.0 mi East 16.1 mph - 0.00 in Rain Light Rain
9:07 AM 39.2 °F 32.0 °F 35.6 °F 87% 29.57 in 7.0 mi East 11.5 mph 25.3 mph 0.00 in Rain Light Rain
9:53 AM 39.9 °F 32.5 °F 37.0 °F 89% 29.59 in 5.0 mi East 12.7 mph - 0.00 in   Overcast
10:53 AM 41.0 °F 34.3 °F 37.9 °F 89% 29.56 in 4.0 mi East 11.5 mph - N/A   Overcast
11:50 AM 41.0 °F 34.3 °F 37.4 °F 87% 29.53 in 2.5 mi East 11.5 mph - N/A   Overcast
11:53 AM 41.0 °F 34.7 °F 37.9 °F 89% 29.53 in 2.0 mi East 10.4 mph - N/A   Overcast
12:10 PM 41.0 °F 34.7 °F 39.2 °F 93% 29.51 in 1.8 mi East 10.4 mph - N/A   Overcast
12:18 PM 41.0 °F 35.2 °F 39.2 °F 93% 29.51 in 1.8 mi East 9.2 mph - N/A   Overcast
12:53 PM 41.0 °F 35.8 °F 39.0 °F 93% 29.50 in 1.5 mi East 8.1 mph - N/A   Overcast
1:53 PM 42.1 °F 36.6 °F 39.9 °F 92% 29.44 in 1.0 mi East 9.2 mph - N/A   Overcast
2:53 PM 43.0 °F 37.7 °F 41.0 °F 93% 29.42 in 1.2 mi ESE 9.2 mph - N/A   Overcast
3:38 PM 42.8 °F 41.1 °F 42.8 °F 100% 29.41 in 0.8 mi ESE 3.5 mph - N/A   Overcast
3:53 PM 43.0 °F 39.5 °F 42.1 °F 97% 29.42 in 0.8 mi ESE 5.8 mph - N/A   Overcast
4:53 PM 43.0 °F 40.3 °F 41.0 °F 93% 29.43 in 0.8 mi NW 4.6 mph - N/A   Overcast
5:06 PM 42.8 °F - 42.8 °F 100% 29.43 in 1.0 mi Calm Calm - N/A   Overcast
5:34 PM 42.8 °F - 41.0 °F 93% 29.42 in 0.5 mi Calm Calm - 0.01 in Fog , Rain Light Rain
5:53 PM 43.0 °F 41.3 °F 41.0 °F 93% 29.41 in 1.0 mi NNE 3.5 mph - 0.02 in Rain Light Rain
6:05 PM 42.8 °F 40.1 °F 41.0 °F 93% 29.42 in 3.0 mi North 4.6 mph - 0.00 in   Overcast
6:53 PM 43.0 °F - 41.0 °F 93% 29.42 in 3.0 mi Calm Calm - 0.00 in   Overcast
7:09 PM 42.8 °F - 41.0 °F 93% 29.42 in 2.5 mi Calm Calm - N/A   Overcast
7:53 PM 43.0 °F 41.3 °F 41.0 °F 93% 29.47 in 3.0 mi South 3.5 mph - N/A   Overcast
8:12 PM 42.8 °F 38.6 °F 39.2 °F 87% 29.47 in 4.0 mi West 6.9 mph - N/A   Overcast
8:36 PM 42.8 °F 35.4 °F 37.4 °F 81% 29.47 in 6.0 mi West 15.0 mph 21.9 mph N/A   Scattered Clouds
8:53 PM 42.1 °F 35.7 °F 37.0 °F 82% 29.49 in 7.0 mi West 11.5 mph - N/A   Clear
9:53 PM 43.0 °F 33.8 °F 28.0 °F 56% 29.53 in 10.0 mi West 23.0 mph 31.1 mph N/A   Clear
10:53 PM 42.1 °F 33.9 °F 27.0 °F 55% 29.56 in 10.0 mi West 17.3 mph - N/A   Overcast
11:53 PM 41.0 °F 31.6 °F 28.0 °F 60% 29.56 in 10.0 mi West 20.7 mph 25.3 mph N/A   Mostly Cloudy